Oscoda, MI

7:23 AM EST on February 21, 2018 (GMT -0500)
Oscoda-Wurtsmith

Weather History for KOSC - February, 2014

Change the Weather History Date:

Sunday, February 2, 2014

  Actual Average Record
Temperature  
Mean Temperature 10 °F -  
Max Temperature 23 °F 28 °F 41 °F (1999)
Min Temperature -4 °F 14 °F -4 °F (2000)
Degree Days  
Heating Degree Days 56    
Moisture  
Dew Point 9 °F    
Average Humidity 80    
Maximum Humidity 93    
Minimum Humidity 56    
Precipitation  
Precipitation 0.00 in - - ()
Sea Level Pressure  
Sea Level Pressure 30.11 in    
Wind  
Wind Speed 5 mph (West)    
Max Wind Speed 15 mph    
Max Gust Speed 20 mph    
Visibility 10 miles    
Events Snow    
Averages and records for this station are not official NWS values.
T = Trace of Precipitation, MM = Missing Value Source: NWS Daily Summary

Daily Weather History Graph

Daily Weather History Graph

Search for Another Location

Airport or City:

Trip Planner

Search our weather history database for the weather conditions in past years. The results will help you decide how hot, cold, wet, or windy it might be!

Date:

Astronomy

Feb. 02, 2014 Rise Set
Actual Time 7:50 AM EST 5:44 PM EST
Civil Twilight 7:19 AM EST 6:15 PM EST
Nautical Twilight 6:45 AM EST 6:49 PM EST
Astronomical Twilight 6:11 AM EST 7:23 PM EST
Moon 9:07 AM EST (2/2) 9:37 PM EST (2/2)
Length of Visible Light 10h 55m
Length of Day
9h 53m
Waxing Crescent, 11% of the Moon is Illuminated
Feb 2
Waxing Crescent
Feb 6
First Quarter
Feb 14
Full
Feb 22
Last Quarter
Mar 1
New

Hourly Weather History & Observations

Time (EST) Temp. Windchill Dew Point Humidity Pressure Visibility Wind Dir Wind Speed Gust Speed Precip Events Conditions
12:13 AM 14.9 °F 9.2 °F 12.9 °F 92% 29.96 in 10.0 mi West 3.5 mph - N/A   Clear
12:34 AM 14.2 °F 8.4 °F 12.6 °F 93% 29.97 in 10.0 mi West 3.5 mph - N/A   Clear
12:53 AM 10.6 °F 1.0 °F 9.0 °F 93% 29.97 in 10.0 mi West 5.8 mph - N/A   Clear
1:13 AM 11.5 °F 5.3 °F 9.7 °F 92% 29.96 in 10.0 mi West 3.5 mph - N/A   Clear
1:34 AM 6.8 °F - 5.0 °F 92% 29.97 in 4.0 mi Calm Calm - N/A   Clear
1:53 AM 7.5 °F 0.8 °F 5.0 °F 89% 29.97 in 10.0 mi WNW 3.5 mph - N/A   Clear
2:14 AM 9.3 °F - 7.3 °F 92% 29.99 in 10.0 mi Calm Calm - N/A   Clear
2:34 AM 11.7 °F 5.5 °F 9.7 °F 92% 30.01 in 10.0 mi West 3.5 mph - N/A   Clear
2:53 AM 11.7 °F 5.5 °F 9.5 °F 91% 30.01 in 10.0 mi WNW 3.5 mph - N/A   Mostly Cloudy
3:14 AM 12.2 °F 6.1 °F 10.0 °F 91% 30.00 in 10.0 mi West 3.5 mph - N/A   Overcast
3:34 AM 14.2 °F 6.7 °F 12.0 °F 91% 30.00 in 10.0 mi West 4.6 mph - N/A   Overcast
3:53 AM 12.2 °F - 9.5 °F 89% 29.99 in 10.0 mi Calm Calm - N/A   Overcast
4:14 AM 13.8 °F 6.2 °F 11.8 °F 92% 30.01 in 10.0 mi WSW 4.6 mph - N/A   Overcast
4:33 AM 15.4 °F 8.1 °F 13.6 °F 93% 30.01 in 10.0 mi WNW 4.6 mph - N/A   Overcast
4:53 AM 17.4 °F 9.1 °F 15.6 °F 93% 30.02 in 10.0 mi WNW 5.8 mph - N/A   Overcast
5:14 AM 17.8 °F 10.9 °F 15.8 °F 92% 30.03 in 10.0 mi WNW 4.6 mph - N/A   Mostly Cloudy
5:34 AM 16.3 °F 10.8 °F 14.2 °F 91% 30.03 in 10.0 mi West 3.5 mph - N/A   Scattered Clouds
5:53 AM 14.9 °F 7.5 °F 12.9 °F 92% 30.03 in 10.0 mi WSW 4.6 mph - N/A   Overcast
6:14 AM 15.1 °F 6.4 °F 12.7 °F 90% 30.02 in 10.0 mi SW 5.8 mph - N/A   Overcast
6:33 AM 13.6 °F 4.6 °F 11.5 °F 91% 30.02 in 10.0 mi SW 5.8 mph - N/A   Scattered Clouds
6:53 AM 13.8 °F 6.2 °F 11.5 °F 90% 30.03 in 10.0 mi SW 4.6 mph - N/A   Scattered Clouds
7:14 AM 12.6 °F 4.8 °F 10.4 °F 91% 30.04 in 10.0 mi WSW 4.6 mph - N/A   Scattered Clouds
7:33 AM 13.8 °F 8.0 °F 11.8 °F 92% 30.04 in 10.0 mi WSW 3.5 mph - N/A   Mostly Cloudy
7:53 AM 12.2 °F 4.3 °F 9.5 °F 89% 30.05 in 10.0 mi WSW 4.6 mph - N/A   Scattered Clouds
8:14 AM 11.3 °F 3.3 °F 9.0 °F 90% 30.06 in 2.5 mi West 4.6 mph - N/A   Scattered Clouds
8:33 AM 12.2 °F - 9.9 °F 90% 30.06 in 10.0 mi Calm Calm - N/A   Overcast
8:53 AM 15.1 °F - 13.1 °F 92% 30.08 in 10.0 mi Calm Calm - N/A   Overcast
9:13 AM 17.6 °F - 15.6 °F 92% 30.09 in 10.0 mi Calm Calm - N/A   Overcast
9:33 AM 18.5 °F 11.7 °F 15.8 °F 89% 30.09 in 10.0 mi WNW 4.6 mph - N/A   Overcast
9:54 AM 18.9 °F 8.8 °F 14.5 °F 83% 30.09 in 10.0 mi WNW 8.1 mph - N/A   Overcast
10:13 AM 19.2 °F 8.4 °F 13.1 °F 77% 30.10 in 10.0 mi NW 9.2 mph - N/A   Mostly Cloudy
10:33 AM 19.9 °F 7.3 °F 12.2 °F 72% 30.10 in 10.0 mi WNW 12.7 mph - N/A   Scattered Clouds
10:54 AM 20.3 °F 7.7 °F 12.0 °F 70% 30.10 in 10.0 mi WNW 12.7 mph 19.6 mph N/A   Scattered Clouds
11:13 AM 21.0 °F 8.1 °F 11.7 °F 67% 30.11 in 10.0 mi NW 13.8 mph 19.6 mph N/A   Clear
11:33 AM 21.9 °F 11.7 °F 12.2 °F 66% 30.11 in 10.0 mi West 9.2 mph - N/A   Scattered Clouds
11:54 AM 22.5 °F 9.9 °F 12.6 °F 66% 30.11 in 10.0 mi West 13.8 mph 19.6 mph N/A   Mostly Cloudy
12:13 PM 23.0 °F 11.1 °F 12.9 °F 65% 30.11 in 10.0 mi West 12.7 mph - N/A   Overcast
12:33 PM 22.8 °F 11.5 °F 12.9 °F 66% 30.12 in 10.0 mi West 11.5 mph 18.4 mph N/A   Overcast
12:54 PM 21.7 °F 10.8 °F 11.7 °F 65% 30.12 in 10.0 mi WNW 10.4 mph - N/A   Mostly Cloudy
1:13 PM 22.1 °F 9.5 °F 11.7 °F 64% 30.13 in 10.0 mi WNW 13.8 mph - N/A   Overcast
1:33 PM 22.3 °F 10.2 °F 12.2 °F 65% 30.13 in 10.0 mi WNW 12.7 mph 18.4 mph N/A   Overcast
1:54 PM 21.9 °F 8.7 °F 11.7 °F 65% 30.13 in 10.0 mi WNW 15.0 mph - N/A   Overcast
2:13 PM 21.9 °F 10.4 °F 11.3 °F 64% 30.13 in 10.0 mi WNW 11.5 mph - N/A Snow Light Snow
2:33 PM 21.7 °F 11.5 °F 12.6 °F 68% 30.13 in 10.0 mi WNW 9.2 mph - N/A Snow Light Snow
2:54 PM 21.6 °F 8.8 °F 11.5 °F 65% 30.13 in 10.0 mi WNW 13.8 mph 18.4 mph N/A   Overcast
3:13 PM 22.6 °F 11.3 °F 11.3 °F 62% 30.12 in 10.0 mi West 11.5 mph - N/A   Overcast
3:33 PM 22.5 °F 10.5 °F 9.3 °F 57% 30.13 in 10.0 mi West 12.7 mph 18.4 mph N/A   Overcast
3:54 PM 21.7 °F 12.3 °F 9.3 °F 59% 30.14 in 10.0 mi West 8.1 mph - N/A   Overcast
4:13 PM 22.8 °F 12.9 °F 9.3 °F 56% 30.16 in 10.0 mi WNW 9.2 mph 16.1 mph N/A   Overcast
4:33 PM 22.6 °F 12.6 °F 9.3 °F 57% 30.16 in 10.0 mi West 9.2 mph - N/A   Overcast
4:54 PM 20.7 °F 11.9 °F 8.4 °F 59% 30.16 in 10.0 mi WNW 6.9 mph - N/A   Scattered Clouds
5:13 PM 19.9 °F 10.1 °F 8.2 °F 61% 30.18 in 10.0 mi West 8.1 mph - N/A   Scattered Clouds
5:33 PM 18.9 °F 10.8 °F 7.5 °F 61% 30.19 in 10.0 mi WSW 5.8 mph - N/A   Mostly Cloudy
5:54 PM 15.4 °F 6.8 °F 6.8 °F 69% 30.19 in 10.0 mi West 5.8 mph - N/A   Scattered Clouds
6:13 PM 12.4 °F 6.3 °F 4.3 °F 70% 30.20 in 10.0 mi West 3.5 mph - N/A   Scattered Clouds
6:33 PM 9.5 °F 1.2 °F 3.7 °F 77% 30.21 in 10.0 mi WSW 4.6 mph - N/A   Mostly Cloudy
6:54 PM 9.5 °F 3.0 °F 5.5 °F 84% 30.22 in 10.0 mi WSW 3.5 mph - N/A   Scattered Clouds
7:13 PM 8.1 °F -0.5 °F 4.5 °F 85% 30.22 in 10.0 mi WSW 4.6 mph - N/A   Mostly Cloudy
7:34 PM 10.6 °F -0.2 °F 5.9 °F 81% 30.22 in 10.0 mi West 6.9 mph - N/A   Overcast
7:53 PM 13.5 °F 4.4 °F 8.2 °F 80% 30.21 in 10.0 mi WNW 5.8 mph - N/A   Mostly Cloudy
8:13 PM 14.0 °F 6.5 °F 8.6 °F 79% 30.22 in 10.0 mi NW 4.6 mph - N/A   Scattered Clouds
8:34 PM 12.2 °F 6.1 °F 6.8 °F 79% 30.22 in 10.0 mi NW 3.5 mph - N/A   Clear
8:53 PM 12.0 °F - 7.2 °F 81% 30.23 in 10.0 mi Calm Calm - N/A   Clear
9:13 PM 6.4 °F - 2.5 °F 84% 30.22 in 10.0 mi Calm Calm - N/A   Clear
9:34 PM 2.3 °F - -0.6 °F 88% 30.23 in 10.0 mi Calm Calm - N/A   Clear
9:53 PM 0.5 °F - -2.2 °F 88% 30.23 in 10.0 mi Calm Calm - N/A   Clear
10:13 PM -1.5 °F - -5.6 °F 83% 30.24 in 10.0 mi Calm Calm - N/A   Clear
10:34 PM -3.5 °F -11.8 °F -7.4 °F 83% 30.25 in 10.0 mi WSW 3.5 mph - N/A   Clear
10:53 PM -3.3 °F - -7.6 °F 82% 30.23 in 10.0 mi Calm Calm - N/A   Clear
11:13 PM -1.8 °F - -5.3 °F 85% 30.23 in 10.0 mi Calm Calm - N/A   Clear
11:34 PM -4.4 °F - -8.7 °F 82% 30.23 in 10.0 mi Calm Calm - N/A   Clear
11:53 PM -4.2 °F - -8.1 °F 83% 30.25 in 10.0 mi Calm Calm - N/A   Clear